Wind_Speed
10 6 3 3 2 2 4 6 3 2 6 5 18 16 12 12 5 6 24 27 27 28 25 22 20 22 24 25 26 25 24 26 27 29 28 28 28 29 28 26 25 23 21 21 21 21 22 23 24
9 5 3 4 3 3 5 8 11 7 7 17 19 13 19 10 19 33 35 30 29 27 26 24 22 24 25 25 26 25 25 25 25 25 25 26 27 30 29 27 23 18 21 20 22 23 24 26 27
12 10 4 4 4 10 4 8 12 13 30 30 11 7 9 18 29 17 31 32 31 28 26 25 24 25 26 26 27 24 24 25 26 25 24 23 26 25 24 23 21 24 23 23 23 24 26 30 27
9 6 8 1 11 13 9 4 9 8 11 24 22 6 14 19 20 28 27 28 31 29 26 25 25 25 27 26 26 26 25 23 25 26 25 25 26 24 24 26 26 25 24 23 23 25 28 27 25
11 6 3 5 10 11 16 11 19 12 6 6 14 12 11 21 27 33 27 27 29 29 27 25 24 24 24 24 25 24 24 23 24 26 26 26 27 27 26 27 27 25 24 23 24 26 28 26 23
5 5 1 7 11 16 19 33 26 13 24 9 16 19 13 32 32 30 29 23 25 28 27 25 24 23 23 22 22 23 22 22 23 24 25 25 26 26 28 27 25 24 23 23 23 24 23 20 18
5 2 6 9 13 20 22 29 7 4 21 30 26 8 25 33 34 34 30 29 25 24 26 26 24 23 22 21 20 21 22 20 23 24 25 26 27 28 28 27 25 24 23 22 22 21 20 18 15
16 2 9 10 12 20 26 22 7 6 16 28 24 3 20 38 33 32 33 30 25 24 24 25 25 23 23 22 19 20 20 21 23 24 26 27 28 29 28 26 24 22 22 21 20 20 20 21 14
21 6 12 14 15 21 29 6 1 3 10 15 10 12 27 37 37 35 34 28 25 27 25 25 25 23 23 23 20 20 21 23 25 26 27 29 29 28 26 24 23 21 20 20 19 19 19 18 11
12 10 20 10 15 16 24 9 20 6 14 10 14 18 41 40 41 36 34 31 27 28 26 25 25 24 24 23 22 22 22 24 26 26 28 28 28 27 25 22 20 19 18 18 17 17 15 9 6
10 17 13 15 33 36 28 17 26 10 8 32 37 44 46 41 41 36 31 29 26 25 25 24 25 24 24 23 25 24 24 25 26 26 27 25 24 22 22 21 20 18 18 18 18 14 12 9 5
14 18 21 24 35 31 18 26 14 16 7 40 49 53 49 39 42 39 33 30 28 26 25 24 23 24 24 23 24 24 25 27 28 26 24 21 20 20 19 19 20 22 23 17 14 11 8 13 10
18 17 29 35 36 38 31 19 12 14 11 29 44 45 44 38 38 34 37 32 30 27 24 26 24 25 22 24 25 24 25 28 27 23 21 17 17 19 17 19 19 19 16 14 14 12 9 8 8
16 22 24 30 30 36 21 17 15 20 26 37 42 42 40 38 38 38 41 37 33 30 27 27 27 27 21 25 24 24 24 31 27 24 23 16 20 19 17 15 13 11 15 17 19 11 10 7 7
25 16 15 17 25 13 18 14 10 24 28 38 38 40 41 38 37 41 42 39 40 34 30 29 32 28 24 24 22 21 17 27 24 22 22 22 19 14 12 12 11 16 25 20 14 10 9 6 6
17 11 15 24 9 17 11 18 12 24 29 28 36 37 38 39 40 38 41 40 38 39 36 33 34 30 27 26 26 26 21 21 15 24 26 20 16 16 17 17 18 16 15 16 12 12 11 6 6
12 19 19 11 11 6 15 16 12 25 24 26 35 40 39 42 38 36 41 43 41 37 43 37 34 35 33 26 29 25 24 24 19 22 22 19 22 22 20 19 19 17 16 14 14 12 10 8 7
17 15 9 10 14 11 11 15 13 25 26 21 32 37 38 40 43 36 40 45 43 39 40 40 35 38 36 33 33 29 25 24 23 23 20 23 19 22 19 19 18 18 13 14 12 12 10 6 9
13 14 13 9 10 16 19 14 15 14 13 18 30 37 38 43 46 37 41 44 45 43 42 42 40 38 39 35 37 33 29 30 25 24 18 27 21 24 21 18 17 17 17 17 16 16 14 14 14
13 19 19 9 20 13 18 18 21 14 17 17 22 38 41 42 43 39 46 38 49 49 46 44 43 41 44 37 40 32 29 30 24 24 19 25 26 24 25 21 19 20 19 17 19 18 18 15 18
20 20 20 17 13 13 8 17 15 12 18 27 29 41 46 48 48 44 49 47 50 54 54 50 47 45 45 41 42 32 28 30 27 27 25 27 24 26 27 24 20 25 22 20 19 20 20 19 22
19 25 22 21 14 12 9 13 15 17 18 12 20 24 45 46 53 55 55 58 45 54 55 52 49 47 46 47 47 41 37 40 33 32 31 29 25 24 30 25 20 27 25 23 20 19 20 19 19
24 15 18 22 18 12 18 3 6 9 7 10 15 21 44 46 50 53 57 62 49 51 55 55 51 47 46 47 46 46 41 41 36 32 30 29 27 25 27 27 22 22 22 21 18 19 22 21 19
23 17 18 15 16 14 15 6 5 7 11 12 14 22 42 49 54 57 59 59 50 50 53 54 49 47 48 50 47 47 43 40 40 37 34 31 28 30 30 28 24 21 21 20 18 17 20 24 21
16 17 12 12 12 11 14 6 7 12 7 6 20 27 38 49 48 46 46 48 47 39 49 54 52 50 47 49 47 48 45 44 41 40 36 34 32 33 32 30 28 24 22 19 17 16 18 22 25
14 18 10 8 5 13 14 6 6 4 6 11 7 33 35 42 46 50 50 48 49 44 49 53 54 50 46 46 46 45 43 44 44 43 39 36 31 31 31 30 27 24 20 19 19 18 19 21 24
9 14 10 7 5 2 4 5 4 6 8 11 15 24 19 30 32 46 50 45 39 42 39 47 47 47 46 44 49 44 45 44 42 39 37 37 30 27 28 29 27 23 23 22 21 21 19 19 22
12 7 3 2 5 5 4 7 6 8 7 8 13 17 28 29 22 31 42 48 46 35 29 41 48 48 47 45 47 45 43 45 38 35 36 37 33 28 26 27 27 27 24 22 20 20 18 20 21
12 9 9 6 3 4 3 5 7 15 16 13 13 26 28 31 25 21 24 30 29 35 28 34 45 49 46 45 45 51 48 45 45 39 33 36 36 30 26 27 28 25 23 19 20 22 23 22 22
14 18 16 5 7 4 7 6 8 16 11 12 15 26 31 33 28 24 21 21 31 31 40 50 27 32 48 52 50 53 53 49 46 39 36 39 38 30 27 29 31 26 21 19 25 24 22 21 22
Wind_Direction
255 252 124 162 34 192 232 256 99 120 111 283 304 283 94 47 110 155 151 161 150 140 138 133 124 119 116 111 112 119 125 124 130 128 126 131 133 128 126 131 129 130 128 129 129 132 131 127 124
237 200 212 258 152 275 269 233 90 73 60 270 260 262 60 67 101 133 137 148 143 141 140 134 128 124 119 116 113 117 123 124 132 134 132 128 126 126 131 133 135 136 134 128 128 125 126 123 119
221 193 249 174 210 233 253 227 132 138 96 271 282 4 70 120 117 145 142 144 143 143 141 136 131 128 124 119 116 120 119 124 127 136 138 138 139 141 137 143 141 132 129 128 121 120 121 124 123
213 215 255 219 254 261 246 118 144 172 192 186 231 57 114 135 129 141 139 148 148 143 142 138 136 132 129 125 121 122 125 128 128 131 139 139 134 138 135 132 129 129 127 122 120 119 124 129 126
207 261 235 228 249 264 267 238 161 172 174 354 151 113 92 126 137 138 137 154 146 144 144 141 141 140 136 132 129 128 128 129 134 135 135 134 132 130 130 129 130 128 124 120 118 122 128 129 127
223 224 268 238 253 262 268 268 165 181 134 228 150 121 114 134 138 139 145 144 139 146 147 145 145 144 142 140 137 134 129 129 132 139 139 136 132 131 133 131 129 125 123 122 121 123 129 127 121
202 308 228 251 262 276 267 283 201 223 162 179 130 112 139 144 143 151 146 151 150 150 152 149 148 148 145 143 143 140 136 132 133 136 140 138 136 135 134 134 131 129 126 123 122 122 127 128 109
224 204 267 258 256 262 271 281 157 116 62 119 115 190 154 149 152 150 149 154 156 157 161 155 152 152 150 148 149 145 139 136 136 136 138 140 140 139 138 136 132 126 122 122 123 123 123 129 92
229 241 249 250 254 266 278 309 57 232 140 124 131 43 161 151 151 146 147 149 150 160 164 160 156 156 153 149 152 151 146 142 140 139 141 142 142 141 140 138 135 131 129 127 129 130 124 129 94
216 233 238 249 264 269 279 279 283 172 109 117 145 165 166 161 157 149 150 152 152 159 162 165 160 160 158 154 153 152 149 147 143 141 140 142 143 144 143 142 140 136 133 134 133 133 133 142 131
246 239 244 245 247 260 273 293 293 144 142 141 137 147 160 166 161 154 158 162 163 163 163 171 163 161 161 159 155 152 149 148 145 143 142 144 144 149 148 147 146 140 137 133 127 132 164 163 174
245 247 244 255 262 272 279 295 319 165 172 154 152 158 162 164 163 162 163 167 165 166 165 171 164 163 159 159 156 154 152 150 146 144 142 148 146 144 149 145 139 128 131 133 141 149 141 142 149
229 235 244 246 253 261 269 274 262 220 138 154 152 157 163 164 168 170 169 162 166 165 162 171 165 162 153 160 154 154 155 151 147 148 151 154 151 139 143 143 138 142 143 150 152 165 173 190 187
236 241 241 245 240 251 253 266 276 210 135 147 153 163 167 172 173 172 178 176 167 171 168 172 171 161 165 156 156 157 153 157 157 162 159 163 146 143 147 149 156 170 152 155 167 192 204 187 181
252 254 261 251 244 244 247 269 257 262 159 158 161 166 171 179 180 180 184 179 175 169 172 175 170 166 173 156 162 163 168 167 165 166 171 154 159 167 159 175 188 161 163 168 183 214 186 188 204
254 261 254 250 238 236 211 256 263 258 175 156 164 167 174 182 188 188 187 184 180 178 171 179 172 170 173 172 177 177 173 174 173 167 165 165 163 170 175 186 173 162 168 181 192 197 198 206 183
246 240 243 250 235 220 206 238 252 257 182 162 167 171 177 184 191 193 188 188 183 179 175 181 180 171 177 175 174 177 177 182 176 171 170 181 180 184 184 188 182 191 194 204 202 200 217 198 169
224 234 242 231 235 248 232 231 236 246 220 191 176 174 176 183 191 198 187 188 186 183 179 182 182 179 180 173 179 179 179 182 187 188 187 182 184 184 179 192 183 197 198 190 200 208 209 207 185
225 242 232 256 240 219 237 223 223 229 210 222 173 176 177 182 188 196 180 184 186 186 182 188 183 187 183 181 185 180 187 180 190 198 198 185 183 190 184 193 200 201 191 201 210 195 197 180 203
233 236 247 247 235 210 230 231 214 206 226 216 198 181 181 181 182 189 188 183 187 190 188 188 190 186 187 186 182 182 186 183 194 199 188 192 192 188 190 191 201 203 192 203 196 204 198 212 212
225 233 245 241 266 249 214 229 212 217 206 228 223 188 182 180 182 184 189 190 190 194 191 192 194 193 190 189 179 181 187 183 195 194 192 199 205 192 203 201 201 199 195 206 211 217 224 218 209
231 230 242 257 250 255 245 241 206 200 208 217 228 203 185 181 185 183 187 192 195 195 194 194 196 197 192 190 182 180 187 186 192 190 196 201 209 194 199 209 198 200 206 211 220 226 226 226 222
242 234 234 242 254 257 272 163 226 156 213 229 233 213 184 182 184 185 187 192 196 197 197 198 197 198 195 193 187 183 188 190 192 198 199 208 209 208 201 207 210 207 213 216 216 219 218 222 224
239 248 257 250 241 247 244 170 263 192 205 235 238 224 180 187 185 187 189 189 190 194 198 196 197 202 200 195 191 185 190 191 192 191 199 207 213 210 206 207 211 212 215 218 220 215 216 220 224
229 227 237 243 243 239 230 206 226 217 204 226 224 228 188 181 184 183 184 186 189 187 199 199 200 202 205 200 194 191 190 194 198 195 202 209 215 211 210 208 211 211 217 222 227 227 224 217 219
237 231 214 218 202 231 236 196 238 228 94 47 162 214 196 180 178 179 181 184 192 198 201 198 200 203 205 201 196 199 198 198 200 205 205 212 221 216 215 213 212 213 216 220 224 232 224 221 222
283 238 200 222 223 193 195 285 25 125 77 65 43 78 112 173 164 172 179 187 196 204 200 193 200 204 207 203 198 202 202 199 198 203 207 215 219 218 218 216 213 211 214 217 223 225 228 225 222
25 343 292 170 191 220 256 202 211 134 124 88 78 71 81 96 119 151 171 185 184 191 192 207 206 206 208 206 205 205 204 208 202 200 209 214 216 216 217 211 209 212 215 216 220 223 226 227 226
11 19 347 315 155 210 255 260 2 173 155 129 98 86 95 92 100 118 170 193 204 205 207 207 205 208 209 211 209 208 208 205 203 206 206 209 214 216 212 210 214 222 214 219 221 218 219 222 227
83 31 15 1 325 310 193 260 339 99 78 87 84 87 95 99 100 102 125 147 183 191 195 214 241 224 213 212 211 210 211 211 208 207 212 215 217 218 217 217 219 214 217 226 225 221 220 223 229
Height
1489 1491 1491 1492 1502 1494 1494 1483 1472 1477 1484 1484 1483 1480 1460 1459 1464 1489 1486 1488 1489 1492 1498 1501 1503 1505 1506 1506 1507 1510 1514 1517 1520 1522 1525 1527 1529 1531 1534 1538 1543 1546 1549 1551 1553 1555 1556 1558 1560
1488 1490 1490 1489 1501 1505 1490 1468 1484 1478 1475 1476 1487 1478 1461 1470 1466 1477 1483 1488 1489 1492 1498 1501 1504 1506 1507 1508 1510 1513 1516 1519 1521 1525 1528 1529 1532 1534 1538 1541 1544 1547 1550 1552 1554 1555 1558 1561 1563
1486 1487 1490 1489 1494 1494 1486 1464 1474 1473 1459 1477 1477 1471 1466 1476 1476 1479 1482 1486 1489 1494 1499 1502 1505 1507 1509 1511 1512 1515 1518 1521 1523 1527 1530 1532 1534 1537 1540 1543 1546 1548 1551 1554 1555 1558 1561 1563 1565
1486 1488 1487 1489 1490 1471 1469 1464 1465 1466 1463 1459 1474 1467 1472 1475 1473 1475 1482 1486 1488 1494 1499 1503 1506 1509 1510 1513 1515 1518 1520 1523 1526 1528 1531 1534 1536 1538 1542 1545 1547 1550 1553 1555 1558 1560 1563 1565 1567
1484 1484 1489 1488 1480 1464 1457 1456 1461 1460 1455 1457 1465 1470 1474 1475 1476 1478 1482 1486 1489 1494 1500 1504 1507 1510 1512 1515 1517 1520 1522 1525 1528 1530 1533 1535 1538 1541 1544 1547 1551 1553 1556 1558 1560 1563 1565 1567 1570
1483 1478 1491 1492 1475 1459 1450 1443 1454 1452 1455 1469 1466 1462 1472 1478 1479 1480 1479 1487 1491 1494 1501 1504 1508 1511 1514 1516 1519 1521 1524 1526 1528 1531 1534 1537 1540 1543 1547 1550 1553 1556 1558 1561 1563 1565 1567 1570 1572
1479 1481 1485 1481 1471 1459 1447 1443 1443 1439 1451 1460 1458 1466 1470 1476 1481 1479 1480 1487 1491 1496 1501 1504 1508 1512 1515 1517 1520 1522 1524 1527 1529 1531 1535 1538 1541 1545 1549 1553 1556 1558 1561 1563 1566 1568 1569 1571 1574
1475 1478 1480 1473 1470 1459 1440 1443 1440 1438 1446 1441 1449 1473 1472 1472 1476 1478 1483 1489 1492 1496 1502 1504 1508 1512 1514 1517 1521 1524 1526 1528 1531 1533 1537 1540 1543 1547 1550 1554 1557 1560 1562 1565 1567 1569 1571 1573 1576
1472 1478 1475 1470 1466 1452 1439 1446 1435 1439 1440 1444 1453 1466 1480 1477 1475 1476 1482 1490 1492 1496 1501 1505 1508 1512 1515 1517 1521 1525 1528 1530 1533 1535 1539 1542 1545 1549 1552 1555 1558 1561 1564 1567 1569 1571 1572 1573 1573
1465 1469 1463 1457 1453 1447 1438 1444 1442 1437 1441 1445 1446 1454 1477 1475 1473 1473 1478 1486 1490 1494 1500 1505 1507 1511 1515 1518 1521 1525 1529 1532 1534 1537 1540 1543 1546 1550 1553 1556 1559 1562 1565 1567 1570 1571 1573 1572 1573
1457 1456 1454 1449 1449 1445 1439 1439 1442 1433 1441 1441 1447 1456 1467 1476 1470 1473 1478 1484 1489 1493 1499 1505 1507 1511 1515 1518 1521 1525 1529 1533 1537 1540 1543 1546 1548 1552 1555 1558 1561 1564 1566 1568 1570 1572 1572 1573 1573
1457 1448 1450 1446 1445 1442 1440 1437 1442 1430 1430 1435 1440 1447 1460 1468 1467 1471 1476 1484 1487 1491 1497 1503 1507 1511 1515 1518 1522 1525 1529 1533 1537 1541 1544 1547 1550 1553 1556 1558 1561 1564 1567 1569 1571 1572 1572 1574 1575
1446 1446 1445 1442 1441 1435 1437 1434 1439 1436 1432 1434 1441 1449 1454 1461 1467 1473 1476 1483 1487 1490 1495 1502 1507 1510 1515 1519 1522 1526 1530 1534 1538 1541 1544 1547 1551 1553 1557 1559 1562 1565 1567 1569 1571 1572 1572 1574 1575
1439 1439 1437 1435 1434 1431 1433 1430 1431 1434 1428 1436 1439 1446 1453 1458 1464 1471 1473 1480 1485 1488 1493 1500 1507 1509 1515 1519 1522 1526 1530 1534 1537 1540 1543 1547 1551 1554 1556 1560 1562 1565 1567 1568 1570 1572 1572 1573 1575
1435 1438 1432 1427 1426 1426 1427 1429 1427 1427 1425 1432 1437 1443 1449 1456 1462 1465 1468 1473 1481 1486 1492 1498 1505 1509 1515 1518 1522 1525 1530 1534 1537 1539 1543 1548 1550 1553 1556 1558 1561 1561 1565 1568 1569 1570 1572 1573 1574
1433 1433 1436 1414 1423 1417 1425 1432 1421 1422 1421 1429 1434 1439 1446 1453 1458 1464 1464 1468 1475 1483 1488 1496 1502 1508 1513 1517 1521 1526 1530 1533 1536 1540 1543 1547 1550 1554 1556 1558 1559 1562 1564 1566 1567 1569 1571 1572 1572
1430 1430 1426 1425 1413 1416 1419 1425 1415 1418 1417 1424 1429 1433 1440 1448 1455 1460 1463 1464 1470 1478 1484 1491 1499 1504 1510 1515 1520 1524 1529 1532 1536 1539 1542 1546 1549 1552 1554 1557 1560 1562 1563 1564 1566 1568 1570 1571 1572
1424 1425 1426 1424 1410 1415 1420 1416 1412 1413 1413 1417 1426 1429 1434 1441 1448 1455 1458 1462 1468 1473 1480 1485 1495 1501 1507 1513 1517 1522 1527 1531 1534 1537 1541 1544 1546 1550 1552 1555 1557 1560 1562 1564 1566 1567 1569 1570 1571
1412 1417 1418 1410 1406 1411 1411 1414 1408 1407 1409 1411 1417 1424 1428 1432 1441 1450 1456 1460 1465 1470 1475 1480 1487 1496 1502 1507 1512 1517 1522 1528 1531 1535 1538 1541 1544 1547 1550 1553 1556 1558 1561 1563 1565 1566 1567 1569 1569
1408 1412 1410 1404 1399 1404 1403 1406 1397 1400 1399 1403 1409 1415 1420 1426 1435 1442 1452 1457 1457 1462 1467 1474 1480 1487 1494 1500 1507 1513 1518 1524 1529 1532 1535 1538 1541 1544 1547 1551 1553 1555 1558 1560 1561 1563 1564 1567 1568
1402 1408 1405 1406 1397 1392 1398 1402 1398 1392 1392 1396 1400 1407 1410 1415 1424 1433 1441 1449 1451 1453 1456 1464 1471 1478 1484 1492 1502 1508 1516 1521 1524 1528 1531 1534 1537 1541 1543 1546 1550 1551 1555 1557 1559 1560 1562 1563 1566
1403 1392 1396 1397 1403 1415 1391 1412 1392 1387 1387 1390 1390 1396 1404 1409 1414 1419 1427 1438 1445 1448 1454 1459 1464 1471 1477 1482 1488 1495 1502 1509 1515 1521 1526 1530 1533 1537 1540 1542 1546 1548 1550 1553 1556 1558 1558 1559 1562
1386 1389 1391 1392 1397 1403 1396 1409 1392 1382 1390 1387 1383 1386 1395 1402 1407 1415 1419 1427 1436 1443 1447 1454 1460 1466 1474 1481 1484 1489 1494 1501 1509 1516 1522 1526 1529 1533 1535 1538 1541 1544 1547 1550 1552 1554 1555 1556 1559
1378 1389 1389 1388 1390 1409 1394 1403 1400 1386 1378 1377 1377 1378 1384 1393 1396 1404 1412 1421 1431 1436 1445 1452 1459 1465 1471 1473 1482 1486 1491 1496 1500 1507 1515 1520 1524 1527 1529 1533 1536 1540 1542 1545 1548 1550 1551 1552 1554
1378 1388 1405 1408 1403 1404 1379 1394 1391 1370 1370 1374 1371 1369 1375 1383 1393 1402 1410 1419 1431 1438 1444 1447 1452 1458 1467 1474 1478 1481 1485 1492 1497 1501 1505 1513 1517 1520 1524 1527 1530 1534 1536 1540 1543 1544 1547 1548 1550
1372 1377 1395 1412 1413 1393 1365 1387 1385 1367 1367 1366 1362 1362 1366 1378 1386 1394 1403 1413 1426 1435 1438 1445 1448 1454 1461 1470 1477 1483 1486 1487 1491 1495 1500 1506 1512 1516 1520 1524 1526 1530 1532 1534 1538 1539 1542 1545 1547
1366 1371 1365 1384 1380 1393 1384 1370 1368 1365 1370 1370 1371 1364 1367 1374 1385 1390 1399 1407 1420 1436 1441 1440 1451 1456 1460 1466 1473 1478 1484 1484 1487 1490 1494 1499 1506 1511 1515 1519 1523 1524 1526 1527 1531 1535 1537 1539 1540
1386 1368 1374 1376 1396 1400 1387 1382 1389 1377 1379 1377 1381 1382 1378 1378 1383 1393 1401 1406 1415 1427 1437 1442 1447 1453 1457 1460 1469 1475 1478 1483 1486 1487 1490 1496 1502 1506 1510 1515 1518 1520 1520 1522 1525 1529 1532 1534 1535
1399 1420 1404 1382 1379 1395 1404 1395 1373 1367 1370 1377 1384 1390 1393 1392 1393 1393 1398 1405 1416 1422 1425 1439 1445 1446 1454 1458 1460 1465 1471 1477 1481 1481 1484 1488 1495 1502 1504 1508 1513 1516 1517 1517 1520 1523 1525 1528 1531
1427 1440 1434 1420 1405 1394 1384 1395 1366 1372 1382 1381 1387 1393 1400 1403 1403 1403 1402 1406 1410 1418 1421 1421 1416 1442 1448 1450 1454 1457 1463 1470 1476 1479 1481 1485 1490 1496 1499 1503 1508 1509 1512 1514 1516 1517 1521 1524 1527